Location: Bishopstone
(51.0167°N, 1.9000°W)
Time: 01:16:07
(UTC+00:00)

CZ-2D R/B - Pass Details

Date: 16 September 2019
Orbit: 523 x 538 km, 97.4° (Epoch: 18 October)

Event Time Altitude Azimuth Distance (km) Brightness Sun altitude
Rises 19:10:17 0° 178° (S) 2,645 6.6 -8.6°
Reaches altitude 10° 19:12:25 10° 183° (S) 1,760 5.8 -8.9°
Maximum altitude 19:16:07 51° 260° (W) 670 4.2 -9.5°
Drops below altitude 10° 19:19:51 10° 337° (NNW) 1,775 6.5 -10.0°
Sets 19:22:01 0° 343° (NNW) 2,670 7.3 -10.3°
